Retour au catalogue

COSMOS 2491 DEB

ActifPO
NORAD 57554·DEBRIS·🇷🇺 Russia

Lancé Dec 25, 2013 depuis Plesetsk Cosmodrome

Loading…

Prochains Passages (prochaines 24 heures)

TLE

VieillissantSource: Space-Track

Époque: Sep 6, 2026, 07:29 UTC

1 57554U 13076AR  26249.31224050  .00000604  00000-0  38950-2 0  9990
2 57554  82.4812 106.2697 0025311  29.3905 330.8596 12.50203180151692

Suivez COSMOS 2491 DEB en temps réel avec AllMySat

Download on the App Store